SL-16 DEB, 22421

Orbit data source: Space-Track

SL-16 DEB, 22421 is space debris in LEO originally from a launch on Fri, 25 Dec 1992 UTC launched from the Tyuratam Missile And Space Complex (TTMTR). Debris objects in space refer to the collection of defunct objects orbiting the Earth. Examples of debris include non-operational satellites, rocket bodies, and fragments generated from explosions, collisions, or faulty payload assembly.

Loading next visibility...
Identifier
22421, 1992-093DN
Orbit
LEO
Country
Flag of CISCIS
Related business
Manufacturer
Unknown
Mission
Spacecraft
Bus & Motor
Unknown
Mass
Unknown
Launch date (UTC)
1992-12-25 (33 years ago)
Launch vehicle
Unknown
Launch site
Tyuratam Missile And Space Complex (TTMTR)
Object type
Payload
Rocket body
Debris
Shape & HBR
Unknown shape, 0.1 m
Radar Cross Section
Small (<0.1 m²)

Expand to show TLE details & history
Last TLE update: 11 hours ago

TLE from 11 hours ago
0 SL-16 DEB
1 22421U 92093DN  26037.02208321  .00000414  00000-0  24338-3 0  9992
2 22421  71.0317  38.8065 0092345 148.5827 244.0395 14.11560864698602
Epoch: 2026-02-06T00:31Z
TLE epoch observation values (Epoch: 2026-02-06T00:31:47.989Z)
Latitude
29.83436°
Longitude
-94.00139°
Altitude
886.982 km
Speed
7.396 km/s
True Right ascension
03h 20m 27s
True Declination
29° 41' 20"
Sunlit
Object was in daylight at epoch
Visualization orbit readout
Latitude
Unknown
Longitude
Unknown
Altitude
Unknown
Speed
Unknown
Apparent Right ascension
Unknown
Apparent Declination
Unknown
Sunlit
N/A
Visualization observer readout
Local Sidereal Time
13:56:09
Azimuth
Unknown
Elevation
Unknown
Doppler factor
Unknown
Orbital elements
Apogee altitude
918.727 km
Perigee altitude
785.194 km
Semi-major axis
7,230.097 km
Eccentricity
0.00923
Inclination
71.0317°
RAAN
38.8065°
Arg. of periapsis
148.5827°
True anomaly
243.09291°
Mean anomaly
244.0395°
Eccentric anomaly
243.56572°
Mean motion
3.53042 °/min
Orbital period
101.97 mins
BSTAR
0.00024338
Loading maneuver chart data...
Computing Atmospheric mass density...
Loading historical data...
Loading historical data...
Loading historical data...
Loading historical data...
Loading historical data...
Loading historical data...
Loading historical data...

Documentation

Showing up to 5 results
|